Date String (YYYY-MM-DD hh:mm:ss) UTC,Instrument flags,absolute air pressure of the measurement (hPa),sample flow rate (lpm),inlet stack bypass flow (lpm),air temperature of the measurement (°C),ambient temperature measured by the external sensor (°C),aerosol sample conditioner tube jacket temperature (°C),OPC LED temperature (°C),internal box temperature (°C),relative humidity of the measurement (%),span deviation,mass concentration of particles derived from Lorenz-Mie calculation of OPC scattering (μg/m³),mass concentration of particles derived from Lorenz-Mie calculation of OPC scattering (μg/m³),mass concentration of particles derived from Lorenz-Mie calculation of OPC scattering (μg/m³)
DateTimeUTC,F1_M11,P_M11,Q1_M11,Q2_M11,T1_M11,T2_M11,T3_M11,T4_M11,T5_M11,U1_M11,ZSPAN_M11,X0_M11,X2_M11,X1_M11
2024-06-18 09:00:00,SystemResetWarning,0816.6,5.01,000.00,030.2,026.6,000.0,039.2,030.8,013.8,0000.0,0018.06,0004.14,0002.70
2024-06-18 09:01:00,SystemResetWarning,0816.6,4.99,000.00,030.0,026.9,000.0,039.1,030.8,014.0,0000.0,0016.63,0004.15,0002.72
2024-06-18 09:02:00,SystemResetWarning,0816.7,4.99,000.00,030.0,027.3,000.0,038.9,031.0,014.1,0000.0,0017.40,0004.17,0002.75
2024-06-18 09:03:00,SystemResetWarning,0816.7,5.00,000.00,030.0,027.7,000.0,038.8,031.2,014.3,0000.0,0017.30,0004.18,0002.77
2024-06-18 09:04:00,SystemResetWarning,0816.8,5.01,000.00,030.0,028.1,000.0,038.7,031.4,014.4,0000.0,0017.52,0004.17,0002.78
2024-06-18 09:05:00,SystemResetWarning,0816.7,5.00,000.00,030.0,028.4,000.0,038.7,031.5,014.8,0000.0,0017.44,0004.18,0002.80
2024-06-18 09:06:00,SystemResetWarning,0816.7,5.00,000.00,030.0,028.7,000.0,038.7,031.6,015.1,0000.0,0017.20,0004.17,0002.80
2024-06-18 09:07:00,SystemResetWarning,0816.8,5.00,000.00,030.1,028.9,000.0,038.6,031.7,015.4,0000.0,0017.47,0004.21,0002.82
2024-06-18 09:08:00,SystemResetWarning,0816.8,5.00,000.00,030.1,029.0,000.0,038.6,031.7,015.4,0000.0,0016.94,0004.28,0002.85
2024-06-18 09:09:00,SystemResetWarning,0816.9,5.00,000.00,030.1,029.2,000.0,038.6,031.8,015.6,0000.0,0016.53,0004.32,0002.90
2024-06-18 09:10:00,SystemResetWarning,0816.9,5.00,000.00,030.2,029.3,000.0,038.6,031.9,015.6,0000.0,0016.05,0004.39,0002.93
2024-06-18 09:11:00,SystemResetWarning,0816.9,4.99,000.00,030.2,029.4,000.0,038.6,031.9,015.7,0000.0,0016.69,0004.46,0002.95
2024-06-18 09:12:00,SystemResetWarning,0816.9,4.99,000.00,030.2,029.5,000.0,038.6,032.0,015.7,0000.0,0018.02,0004.52,0002.98
2024-06-18 09:13:00,SystemResetWarning,0816.9,5.00,000.00,030.3,029.6,000.0,038.6,032.0,015.8,0000.0,0019.32,0004.65,0002.99
2024-06-18 09:14:00,SystemResetWarning,0816.9,5.01,000.00,030.3,029.6,000.0,038.7,032.0,015.8,0000.0,0019.65,0004.76,0003.01
2024-06-18 09:15:00,SystemResetWarning,0817.0,5.01,000.00,030.4,029.7,000.0,038.7,032.1,015.9,0000.0,0020.25,0004.85,0003.06
2024-06-18 09:16:00,SystemResetWarning,0817.1,5.00,000.00,030.4,029.7,000.0,038.7,032.1,016.0,0000.0,0020.02,0004.97,0003.10
2024-06-18 09:17:00,SystemResetWarning,0817.1,4.99,000.00,030.4,029.8,000.0,038.7,032.1,016.1,0000.0,0020.28,0005.06,0003.13
2024-06-18 09:18:00,SystemResetWarning,0817.1,5.00,000.00,030.5,029.8,000.0,038.7,032.2,016.1,0000.0,0020.59,0005.12,0003.15
2024-06-18 09:19:00,SystemResetWarning,0817.2,5.00,000.00,030.5,029.9,000.0,038.8,032.2,016.2,0000.0,0022.03,0005.19,0003.16
2024-06-18 09:20:00,SystemResetWarning,0817.2,5.00,000.00,030.5,029.9,000.0,038.8,032.3,016.2,0000.0,0021.97,0005.26,0003.16
2024-06-18 09:21:00,SystemResetWarning,0817.2,5.01,000.00,030.5,030.0,000.0,038.8,032.3,016.3,0000.0,0021.37,0005.24,0003.17
2024-06-18 09:22:00,SystemResetWarning,0817.3,5.01,000.00,030.6,030.0,000.0,038.8,032.3,016.4,0000.0,0020.91,0005.24,0003.18
2024-06-18 09:23:00,SystemResetWarning,0817.3,5.00,000.00,030.6,030.0,000.0,038.8,032.3,016.3,0000.0,0020.32,0005.32,0003.18
2024-06-18 09:24:00,SystemResetWarning,0817.3,5.00,000.00,030.6,030.0,000.0,038.9,032.4,016.3,0000.0,0021.29,0005.33,0003.19
2024-06-18 09:25:00,SystemResetWarning,0817.4,5.00,000.00,030.7,030.1,000.0,038.9,032.4,016.3,0000.0,0025.06,0005.44,0003.20
2024-06-18 09:26:00,SystemResetWarning,0817.4,5.00,000.00,030.7,030.1,000.0,038.9,032.4,016.4,0000.0,0026.20,0005.55,0003.20
2024-06-18 09:27:00,SystemResetWarning,0817.4,5.00,000.00,030.7,030.1,000.0,038.9,032.4,016.4,0000.0,0027.54,0005.66,0003.24
2024-06-18 09:28:00,SystemResetWarning,0817.4,5.00,000.00,030.7,030.1,000.0,039.0,032.4,016.4,0000.0,0029.60,0005.73,0003.27
2024-06-18 09:29:00,SystemResetWarning,0817.5,5.00,000.00,030.8,030.2,000.0,039.0,032.4,016.3,0000.0,0031.40,0005.79,0003.29
2024-06-18 09:30:00,SystemResetWarning,0817.5,4.99,000.00,030.8,030.2,000.0,039.0,032.5,016.3,0000.0,0032.13,0005.87,0003.32
2024-06-18 09:31:00,SystemResetWarning,0817.5,5.01,000.00,030.8,030.2,000.0,039.0,032.5,016.2,0000.0,0033.73,0005.99,0003.35
2024-06-18 09:32:00,SystemResetWarning,0817.6,5.01,000.00,030.8,030.2,000.0,039.1,032.5,016.3,0000.0,0035.77,0006.16,0003.39
2024-06-18 09:33:00,SystemResetWarning,0817.7,5.01,000.00,030.8,030.2,000.0,039.1,032.5,016.3,0000.0,0036.85,0006.42,0003.44
2024-06-18 09:34:00,SystemResetWarning,0817.8,5.00,000.00,030.9,030.2,000.0,039.1,032.6,016.3,0000.0,0037.65,0006.58,0003.48
2024-06-18 09:35:00,SystemResetWarning,0817.8,4.99,000.00,030.9,030.3,000.0,039.1,032.6,016.3,0000.0,0037.15,0006.73,0003.50
2024-06-18 09:36:00,SystemResetWarning,0817.8,4.99,000.00,030.9,030.3,000.0,039.2,032.6,016.3,0000.0,0034.91,0006.83,0003.52
2024-06-18 09:37:00,SystemResetWarning,0818.0,5.00,000.00,030.9,030.3,000.0,039.2,032.6,016.3,0000.0,0035.12,0006.90,0003.55
2024-06-18 09:38:00,SystemResetWarning,0818.0,5.00,000.00,030.9,030.3,000.0,039.2,032.6,016.3,0000.0,0034.63,0006.99,0003.56
2024-06-18 09:39:00,SystemResetWarning,0818.0,5.00,000.00,030.9,030.3,000.0,039.2,032.7,016.2,0000.0,0033.81,0007.04,0003.57
2024-06-18 09:40:00,SystemResetWarning,0818.0,5.00,000.00,031.0,030.4,000.0,039.2,032.7,016.1,0000.0,0034.08,0007.15,0003.59
2024-06-18 09:41:00,SystemResetWarning,0818.0,5.00,000.00,031.0,030.4,000.0,039.2,032.7,016.0,0000.0,0034.70,0007.19,0003.59
2024-06-18 09:42:00,SystemResetWarning,0818.0,5.01,000.00,031.0,030.4,000.0,039.3,032.7,016.0,0000.0,0036.13,0007.19,0003.58
2024-06-18 09:43:00,SystemResetWarning,0818.0,5.00,000.00,031.0,030.4,000.0,039.3,032.7,016.0,0000.0,0036.79,0007.20,0003.57
2024-06-18 09:44:00,SystemResetWarning,0818.0,5.00,000.00,031.0,030.4,000.0,039.3,032.7,016.0,0000.0,0037.24,0007.16,0003.55
2024-06-18 09:45:00,SystemResetWarning,0818.0,5.00,000.00,031.1,030.4,000.0,039.3,032.8,016.0,0000.0,0038.38,0007.13,0003.55
2024-06-18 09:46:00,SystemResetWarning,0818.0,5.00,000.00,031.1,030.4,000.0,039.3,032.8,016.0,0000.0,0038.70,0007.16,0003.56
2024-06-18 09:47:00,SystemResetWarning,0818.0,5.00,000.00,031.1,030.5,000.0,039.3,032.8,015.9,0000.0,0038.68,0007.16,0003.58
2024-06-18 09:48:00,SystemResetWarning,0818.0,4.99,000.00,031.1,030.5,000.0,039.4,032.8,015.9,0000.0,0038.39,0007.22,0003.58
2024-06-18 09:49:00,SystemResetWarning,0818.0,4.99,000.00,031.1,030.5,000.0,039.4,032.9,015.9,0000.0,0038.94,0007.26,0003.57
2024-06-18 09:50:00,SystemResetWarning,0818.0,4.99,000.00,031.1,030.5,000.0,039.4,032.9,015.8,0000.0,0040.93,0007.36,0003.58
2024-06-18 09:51:00,SystemResetWarning,0818.1,4.99,000.00,031.1,029.8,000.0,039.4,032.4,015.8,0000.0,0041.79,0007.38,0003.57
2024-06-18 09:52:00,SystemResetWarning,0818.0,5.01,000.00,030.6,027.0,000.0,039.5,031.1,016.2,0000.0,0041.48,0007.40,0003.57
2024-06-18 09:53:00,SystemResetWarning,0818.0,5.01,000.00,030.2,026.4,000.0,039.4,030.7,016.6,0000.0,0041.18,0007.53,0003.60
2024-06-18 09:54:00,SystemResetWarning,0818.0,5.00,000.00,030.1,026.8,000.0,039.2,030.8,016.7,0000.0,0042.16,0007.54,0003.61
2024-06-18 09:55:00,SystemResetWarning,0818.0,5.00,000.00,030.0,027.2,000.0,039.1,031.1,016.7,0000.0,0043.08,0007.65,0003.62
2024-06-18 09:56:00,SystemResetWarning,0818.1,5.00,000.00,030.0,027.7,000.0,039.0,031.3,016.7,0000.0,0043.16,0007.80,0003.62
2024-06-18 09:57:00,SystemResetWarning,0818.1,5.01,000.00,030.0,028.1,000.0,038.9,031.4,016.7,0000.0,0044.83,0007.83,0003.63
2024-06-18 09:58:00,SystemResetWarning,0818.2,5.00,000.00,030.0,028.4,000.0,038.8,031.6,016.8,0000.0,0044.41,0007.89,0003.63
2024-06-18 09:59:00,SystemResetWarning,0818.3,5.00,000.00,030.1,028.6,000.0,038.8,031.7,016.8,0000.0,0044.60,0007.87,0003.62
